Dalhart, TX

12:53 PM CST on December 08, 2016 (GMT -0600)
Dalhart Municipal

Weather History for KDHT - July, 2013

Change the Weather History Date:

Tuesday, July 9, 2013

  Actual Average Record
Temperature  
Mean Temperature 85 °F 77 °F  
Max Temperature 100 °F 92 °F 107 °F (2011)
Min Temperature 69 °F 62 °F 50 °F (1952)
Degree Days  
Heating Degree Days 0 0  
Month to date heating degree days 0 0  
Since 1 June heating degree days 0 12  
Since 1 July heating degree days 0 0  
Cooling Degree Days 20 12  
Month to date cooling degree days 119 104  
Year to date cooling degree days 680 416  
Since 1 June cooling degree days 526 344  
Growing Degree Days 34 (Base 50)    
Moisture  
Dew Point 53 °F    
Average Humidity 39    
Maximum Humidity 57    
Minimum Humidity 20    
Precipitation  
Precipitation 0.00 in 0.08 in 1.94 in (1993)
Month to date precipitation T 0.72  
Year to date precipitation 1.93 8.43  
Snow  
Snow 0.00 in 0.00 in 0.00 in ()
Month to date snowfall 0.0 0.0  
Since 1 June snowfall 0.0 0.0  
Since 1 July snowfall 0.0 0.0  
Snow Depth 0.00 in    
Sea Level Pressure  
Sea Level Pressure 29.92 in    
Wind  
Wind Speed 14 mph (SSW)    
Max Wind Speed 24 mph    
Max Gust Speed 30 mph    
Visibility 10 miles    
Events      
T = Trace of Precipitation, MM = Missing Value Source: NWS Daily Summary

Daily Weather History Graph

Daily Weather History Graph

Search for Another Location

Airport or City:

Trip Planner

Search our weather history database for the weather conditions in past years. The results will help you decide how hot, cold, wet, or windy it might be!

Date:

Astronomy

Jul. 09, 2013 Rise Set
Actual Time 6:41 AM CDT 9:09 PM CDT
Civil Twilight 6:11 AM CDT 9:39 PM CDT
Nautical Twilight 5:34 AM CDT 10:15 PM CDT
Astronomical Twilight 4:54 AM CDT 10:56 PM CDT
Moon 8:03 AM CDT (7/9) 9:53 PM CDT (7/9)
Length of Visible Light 15h 27m
Length of Day
14h 28m
New Moon, 2% of the Moon is Illuminated
Jul 9
New Moon
Jul 15
First Quarter
Jul 22
Full
Jul 29
Last Quarter
Aug 6
New

Hourly Weather History & Observations

Time (CDT) Temp. Heat Index Dew Point Humidity Pressure Visibility Wind Dir Wind Speed Gust Speed Precip Events Conditions
12:53 AM 80.1 °F - 52.0 °F 38% 29.91 in 10.0 mi South 12.7 mph - N/A   Clear
1:53 AM 78.1 °F - 52.0 °F 40% 29.91 in 10.0 mi South 11.5 mph - N/A   Clear
2:53 AM 75.0 °F - 52.0 °F 44% 29.92 in 10.0 mi SSW 6.9 mph - N/A   Clear
3:53 AM 73.0 °F - 53.1 °F 49% 29.92 in 10.0 mi South 9.2 mph - N/A   Clear
4:53 AM 69.1 °F - 53.1 °F 57% 29.93 in 10.0 mi SSW 9.2 mph - N/A   Clear
5:53 AM 72.0 °F - 54.0 °F 53% 29.93 in 10.0 mi SSW 12.7 mph - N/A   Clear
6:53 AM 70.0 °F - 54.0 °F 57% 29.94 in 10.0 mi SSW 12.7 mph - N/A   Clear
7:53 AM 73.9 °F - 55.0 °F 52% 29.95 in 10.0 mi SSW 15.0 mph - N/A   Clear
8:53 AM 81.0 °F 81.0 °F 57.0 °F 44% 29.96 in 10.0 mi SW 18.4 mph 25.3 mph N/A   Clear
9:53 AM 84.9 °F 83.9 °F 57.0 °F 38% 29.96 in 10.0 mi SW 19.6 mph - N/A   Clear
10:53 AM 89.1 °F 87.3 °F 55.9 °F 32% 29.96 in 10.0 mi SW 18.4 mph - N/A   Clear
11:53 AM 91.9 °F 90.3 °F 55.9 °F 30% 29.96 in 10.0 mi SSW 18.4 mph 28.8 mph N/A   Clear
12:53 PM - - - N/A% 30.16 in - North - - N/A   Clear
1:53 PM 97.0 °F - 50.0 °F 20% 29.92 in 10.0 mi SSW 15.0 mph 24.2 mph N/A   Clear
2:53 PM 98.1 °F - 50.0 °F 20% 29.91 in 10.0 mi SSW 15.0 mph 24.2 mph N/A   Clear
3:53 PM 99.0 °F - 51.1 °F 20% 29.89 in 10.0 mi SSW 19.6 mph 26.5 mph N/A   Clear
4:53 PM 99.0 °F - 50.0 °F 19% 29.87 in 10.0 mi South 12.7 mph 21.9 mph N/A   Clear
5:53 PM 99.0 °F - 50.0 °F 19% 29.85 in 10.0 mi South 12.7 mph 23.0 mph N/A   Clear
6:53 PM 97.0 °F - 52.0 °F 22% 29.86 in 10.0 mi SSW 19.6 mph 24.2 mph N/A   Clear
7:53 PM 93.9 °F - 52.0 °F 24% 29.87 in 10.0 mi SSW 11.5 mph - N/A   Clear
8:53 PM 91.0 °F - 52.0 °F 26% 29.87 in 10.0 mi South 13.8 mph - N/A   Clear
9:53 PM 87.1 °F - 51.1 °F 29% 29.88 in 10.0 mi South 11.5 mph - N/A   Clear
10:53 PM 84.9 °F - 51.1 °F 31% 29.91 in 10.0 mi South 15.0 mph - N/A   Clear
11:53 PM 82.9 °F - 51.1 °F 33% 29.91 in 10.0 mi South 11.5 mph - N/A   Clear